Flag for U.S.A. Weather past 2 weeks in Petersburg, Indiana, U.S.A.

79 °F


Feels Like: 80 °F
Forecast: 58 / 80 °F
Wind: No wind

Location: Huntingburg Airport

Current Time: Oct 6, 2015 at 1:01:06 PM

Latest Report: Oct 6, 2015 at 12:35 PM

Visibility: 10 mi

Pressure: 30.10 "Hg

Humidity: 54%

Dew point: 61 °F

Location of PetersburgLocation

Historic Weather in Petersburg — Graph


Petersburg temperature yesterday

Maximum temperature yesterday: 81 °F (at 3:15 PM)
Minimum temperature yesterday: 55 °F (at 7:15 AM)
Average temperature yesterday: 68 °F

Past Weeks' High & Low Weather Summary

High86 °F (Sep 24, 4:55 PM)94% (Sep 22, 5:55 AM)30.26 "Hg (Sep 22, 5:55 AM)
Low46 °F (Oct 3, 7:55 AM)26% (Sep 22, 4:35 PM)29.87 "Hg (Sep 29, 5:35 PM)
Average65 °F71%30.07 "Hg
* Reported Sep 21 11:15 AM — Oct 6 11:55 AM, Petersburg, Weather by CustomWeather, © 2015

Note: Actual official high and low records may vary slightly from our data, if they occured in-between our weather recording intervals... More about our weather records


Petersburg weather history for previous 24 hours

Time TempWeatherWind HumidityBarometerVisibility
11:55 AM
Tue, Oct 6
73 °FSunny.5 mph65%30.10 "Hg10 mi
11:35 AM73 °FSunny.No wind69%30.11 "Hg10 mi
11:15 AM70 °FSunny.3 mph78%30.12 "Hg10 mi
10:55 AM70 °FSunny.No wind73%30.11 "Hg10 mi
10:35 AM66 °FSunny.5 mph83%30.12 "Hg10 mi
10:15 AM64 °FSunny.5 mph83%30.11 "Hg10 mi
9:55 AM64 °FSunny.6 mph83%30.11 "Hg10 mi
9:35 AM64 °FSunny.6 mph88%30.11 "Hg10 mi
9:15 AM63 °FSunny.3 mph88%30.10 "Hg10 mi
8:55 AM61 °FSunny.No wind88%30.10 "Hg10 mi
8:35 AM61 °FClear.No wind88%30.10 "Hg9 mi
8:15 AM59 °FClear.No wind88%30.09 "Hg5 mi
7:55 AM59 °FClear.3 mph88%30.09 "Hg5 mi
7:35 AM59 °FClear.No wind88%30.08 "Hg7 mi
7:15 AM61 °FClear.No wind83%30.07 "Hg9 mi
6:55 AM61 °FClear.No wind83%30.07 "Hg10 mi
6:35 AM61 °FClear.3 mph83%30.07 "Hg10 mi
6:15 AM61 °FClear.3 mph88%30.06 "Hg10 mi
5:55 AM61 °FClear.3 mph88%30.05 "Hg10 mi
5:35 AM61 °FClear.No wind88%30.05 "Hg10 mi
5:15 AM61 °FClear.5 mph88%30.05 "Hg10 mi
4:55 AM61 °FClear.6 mph88%30.05 "Hg10 mi
4:35 AM61 °FClear.No wind88%30.05 "Hg10 mi
4:15 AM63 °FClear.5 mph83%30.05 "Hg10 mi
3:55 AM63 °FClear.No wind83%30.05 "Hg10 mi
3:35 AM63 °FClear.5 mph83%30.06 "Hg10 mi
3:15 AM63 °FClear.No wind83%30.06 "Hg10 mi
2:55 AM63 °FClear.3 mph83%30.06 "Hg10 mi
2:35 AM63 °FClear.3 mph83%30.06 "Hg10 mi
2:15 AM64 °FClear.3 mph78%30.06 "Hg10 mi
1:55 AM64 °FClear.5 mph78%30.06 "Hg10 mi
1:35 AM64 °FClear.5 mph78%30.06 "Hg10 mi
1:15 AM64 °FClear.3 mph78%30.07 "Hg10 mi
12:35 AM64 °FClear.6 mph78%30.06 "Hg10 mi
11:55 PM
Mon, Oct 5
64 °FClear.5 mph83%30.06 "Hg10 mi
11:35 PM66 °FClear.6 mph73%30.06 "Hg10 mi
11:15 PM64 °FClear.7 mph78%30.07 "Hg10 mi
10:55 PM66 °FClear.5 mph78%30.07 "Hg10 mi
10:35 PM66 °FClear.6 mph73%30.06 "Hg10 mi
10:15 PM66 °FClear.7 mph78%30.06 "Hg10 mi
9:55 PM68 °FClear.5 mph73%30.06 "Hg10 mi
9:35 PM70 °FClear.6 mph69%30.06 "Hg10 mi
9:15 PM70 °FClear.7 mph69%30.06 "Hg10 mi
8:55 PM72 °FClear.7 mph65%30.05 "Hg10 mi
8:35 PM72 °FClear.7 mph65%30.05 "Hg10 mi
8:15 PM72 °FSunny.6 mph65%30.04 "Hg10 mi
7:55 PM72 °FSunny.5 mph65%30.04 "Hg10 mi
7:35 PM73 °FSunny.6 mph61%30.04 "Hg10 mi
7:15 PM73 °FSunny.5 mph61%30.03 "Hg10 mi
6:55 PM75 °FSunny.5 mph61%30.03 "Hg10 mi
6:35 PM77 °FSunny.6 mph54%30.02 "Hg10 mi
5:15 PM81 °FSunny.12 mph48%30.02 "Hg10 mi
4:55 PM81 °FSunny.10 mph51%30.01 "Hg10 mi
4:35 PM81 °FSunny.10 mph48%30.02 "Hg10 mi
4:15 PM81 °FSunny.8 mph51%30.02 "Hg10 mi
3:55 PM81 °FSunny.12 mph51%30.02 "Hg10 mi
3:35 PM81 °FSunny.10 mph51%30.03 "Hg10 mi
3:15 PM81 °FSunny.12 mph51%30.03 "Hg10 mi
2:55 PM79 °FSunny.10 mph54%30.03 "Hg10 mi
2:35 PM79 °FSunny.13 mph54%30.04 "Hg10 mi
2:15 PM79 °FSunny.13 mph54%30.05 "Hg10 mi
1:55 PM79 °FSunny.7 mph54%30.06 "Hg10 mi
1:35 PM77 °FSunny.10 mph57%30.06 "Hg10 mi
1:15 PM77 °FSunny.9 mph57%30.07 "Hg10 mi
Weather by CustomWeather, © 2015

See weather overviewHow to use our weather pages